Showing default

YAOGAN-31 B, 43276

Orbit data source: Space-Track

YAOGAN-31 B, 43276 is a payload satellite owned by PLA SSF (CN) in LEO that was launched on Tue, 10 Apr 2018 UTC via a CHANG ZHENG 4C launch vehicle from the Jiuquan Satellite Launch Center, China (JSC). Payload-class satellites include a variety of spacecraft equipped with specific instruments for various scientific and technological missions. These include communications satellites like Starlink; space stations such as the ISS; scientific satellites like the Hubble; Earth observation satellites from companies like Planet Labs, Umbra, and HawkEye 360; GPS; miniature CubeSats for education and research; and military/defense satellites.

Loading next visibility...
Identifier
43276, 2018-034B
Orbit
LEO
Country
Flag of CNCN / PRC
Related business
Manufacturer
DFH
Mission
Operational Defense Sigint
Bus & Motor
Unknown
Mass
~500 kg wet, ~500 kg dry
Launch date (UTC)
2018-04-10 (8 years ago)
Launch vehicle
CHANG ZHENG 4C
Launch site
Jiuquan Satellite Launch Center, China (JSC)
Object type
Payload
Rocket body
Debris
Shape & HBR
Box + 2 Pan, 0.5 m
Radar Cross Section
0.446 m², Large (>1 m²)

Expand to show TLE details & history
Last TLE update: 5 hours ago

TLE from 5 hours ago
0 YAOGAN-31 B
1 43276U 18034B   25308.60323148  .00000021  00000-0  15458-3 0  9992
2 43276  63.3971 309.0679 0255106   6.6425 353.7878 13.45423987372008
Epoch: 2025-11-04T14:28Z
TLE epoch observation values (Epoch: 2025-11-04T14:28:39.199Z)
Latitude
-0°
Longitude
47.81669°
Altitude
901.574 km
Speed
7.495 km/s
True Right ascension
20h 36m 16s
True Declination
0° 00' 00"
Sunlit
Object was in daylight at epoch
Visualization orbit readout
Latitude
Unknown
Longitude
Unknown
Altitude
Unknown
Speed
Unknown
Apparent Right ascension
Unknown
Apparent Declination
Unknown
Sunlit
N/A
Visualization observer readout
Local Sidereal Time
15:39:47
Azimuth
Unknown
Elevation
Unknown
Doppler factor
Unknown
Orbital elements
Apogee altitude
1,278.436 km
Perigee altitude
897.506 km
Semi-major axis
7,466.108 km
Eccentricity
0.02551
Inclination
63.3971°
RAAN
309.0679°
Arg. of periapsis
6.6425°
True anomaly
353.46113°
Mean anomaly
353.7878°
Eccentric anomaly
353.62552°
Mean motion
3.36435 °/min
Orbital period
107 mins
BSTAR
0.00015458
Loading maneuver chart data...
Computing Atmospheric mass density...
Loading historical data...
Loading historical data...
Loading historical data...
Loading historical data...
Loading historical data...
Loading historical data...
Loading historical data...

Documentation

Showing up to 5 results
|